FW7253 Weather Reports


time (UTC)temp
F
wind
direction
speed
knots
gust
knots
rain 1hr
in
rain 24hr
in
rain mn
in
humidity
%
barometer
mb
20260507075034 47 337 0.9 7.8 0.00 0.00 0.00 42 1017.7
20260507074602 47 354 4.3 7.8 0.00 0.00 0.00 41 1017.6
20260507074034 46 298 4.3 10.4 0.00 0.00 0.00 45 1017.5
20260507073535 46 326 3.5 10.4 0.00 0.00 0.00 44 1017.5
20260507073039 45 360 6.1 10.4 0.00 0.00 0.00 44 1017.5
20260507072535 45 14 5.2 9.6 0.00 0.00 0.00 45 1017.5
20260507072033 45 309 4.3 8.7 0.00 0.00 0.00 46 1017.4
20260507071546 45 352 4.3 8.7 0.00 0.00 0.00 46 1017.4
20260507071034 44 345 5.2 8.7 0.00 0.00 0.00 46 1017.3
20260507070534 44 331 5.2 9.6 0.00 0.00 0.00 48 1017.3
20260507070046 44 329 5.2 10.4 0.00 0.00 0.00 48 1017.3
20260507065534 44 347 6.1 10.4 0.00 0.00 0.00 47 1017.3
20260507065034 43 340 5.2 10.4 0.00 0.00 0.00 48 1017.4
20260507064541 43 321 7.0 10.4 0.00 0.00 0.00 48 1017.4
20260507064037 43 324 4.3 9.6 0.00 0.00 0.00 49 1017.4
20260507063533 43 307 6.1 8.7 0.00 0.00 0.00 49 1017.3
20260507063043 43 359 4.3 8.7 0.00 0.00 0.00 49 1017.3
20260507062535 42 320 4.3 8.7 0.00 0.00 0.00 50 1017.2
20260507062036 42 332 5.2 10.4 0.00 0.00 0.00 49 1017.2
20260507061539 42 360 7.0 10.4 0.00 0.00 0.00 50 1017.2
20260507061034 41 352 7.0 10.4 0.00 0.00 0.00 50 1017.2
20260507060534 41 320 5.2 8.7 0.00 0.00 0.00 51 1017.1
20260507060040 41 6 5.2 9.6 0.00 0.00 0.00 51 1017.1
20260507055535 41 333 5.2 9.6 0.00 0.00 0.00 51 1017.1
20260507055038 40 359 5.2 11.3 0.00 0.00 0.00 52 1017.1
20260507054549 40 339 6.1 11.3 0.00 0.00 0.00 52 1017.0
20260507054034 40 323 3.5 8.7 0.00 0.00 0.00 53 1017.0
20260507053534 40 342 6.1 8.7 0.00 0.00 0.00 52 1016.8
20260507053050 39 337 4.3 8.7 0.00 0.00 0.00 53 1017.0
20260507052535 39 352 2.6 7.0 0.00 0.00 0.00 54 1017.0
20260507052034 39 334 2.6 7.0 0.00 0.00 0.00 54 1016.8
20260507051545 39 16 3.5 7.8 0.00 0.00 0.00 54 1016.8
20260507051035 39 355 4.3 7.8 0.00 0.00 0.00 54 1016.8
20260507050534 38 351 3.5 7.8 0.00 0.00 0.00 55 1016.7
20260507050042 38 352 3.5 8.7 0.00 0.00 0.00 55 1016.6
20260507045536 38 343 5.2 9.6 0.00 0.00 0.00 55 1016.5
20260507045035 38 326 5.2 9.6 0.00 0.00 0.00 55 1016.6
20260507044547 38 326 5.2 9.6 0.00 0.00 0.00 55 1016.5
20260507044035 37 341 5.2 9.6 0.00 0.00 0.00 56 1016.5
20260507043533 37 314 6.1 9.6 0.00 0.00 0.00 56 1016.5
20260507043046 37 310 5.2 8.7 0.00 0.00 0.00 56 1016.4
20260507042534 37 342 5.2 8.7 0.00 0.00 0.00 56 1016.5
20260507042034 37 341 5.2 11.3 0.00 0.00 0.00 56 1016.5
20260507041549 37 335 5.2 11.3 0.00 0.00 0.00 56 1016.4
20260507041034 37 342 7.0 11.3 0.00 0.00 0.00 56 1016.3
20260507040535 37 24 6.1 9.6 0.00 0.00 0.00 56 1016.3
20260507040046 37 354 6.1 9.6 0.00 0.00 0.00 56 1016.1
20260507035533 37 1 6.1 8.7 0.00 0.00 0.00 56 1016.2
20260507035034 37 342 5.2 8.7 0.00 0.00 0.00 56 1016.0
20260507034552 36 349 5.2 8.7 0.00 0.00 0.00 56 1016.1
20260507034036 36 340 5.2 8.7 0.00 0.00 0.00 56 1016.0
20260507033534 36 357 5.2 7.8 0.00 0.00 0.00 57 1016.0
20260507033044 36 346 4.3 7.8 0.00 0.00 0.00 57 1015.9
20260507032534 36 12 4.3 8.7 0.00 0.00 0.00 57 1015.9
20260507032033 37 342 5.2 8.7 0.00 0.00 0.00 56 1015.9
20260507031603 37 347 4.3 8.7 0.00 0.00 0.00 56 1015.9
20260507031037 37 344 3.5 8.7 0.00 0.00 0.00 56 1015.8
20260507030533 37 20 3.5 8.7 0.00 0.00 0.00 56 1015.8
20260507030053 37 9 5.2 8.7 0.00 0.00 0.00 56 1015.8
20260507025533 37 346 5.2 8.7 0.00 0.00 0.00 56 1015.9
20260507025033 37 346 3.5 7.8 0.00 0.00 0.00 56 1015.8
20260507024546 37 340 3.5 7.0 0.00 0.00 0.00 56 1015.7
20260507024034 37 354 4.3 7.0 0.00 0.00 0.00 56 1015.7
20260507023534 37 331 3.5 6.1 0.00 0.00 0.00 56 1015.6
20260507023047 37 352 2.6 7.0 0.00 0.00 0.00 56 1015.6
20260507022535 37 39 3.5 7.0 0.00 0.00 0.00 55 1015.6
20260507022034 37 16 3.5 7.0 0.00 0.00 0.00 55 1015.5
20260507021543 37 347 4.3 7.8 0.00 0.00 0.00 55 1015.6
20260507021034 38 349 5.2 9.6 0.00 0.00 0.00 55 1015.7
20260507020536 38 359 6.1 9.6 0.00 0.00 0.00 55 1015.5
20260507020049 38 342 5.2 9.6 0.00 0.00 0.00 54 1015.5
20260507015534 38 321 6.1 9.6 0.00 0.00 0.00 55 1015.5
20260507015035 38 349 4.3 8.7 0.00 0.00 0.00 55 1015.5
20260507014557 38 356 5.2 8.7 0.00 0.00 0.00 54 1015.4
20260507014035 38 1 5.2 8.7 0.00 0.00 0.00 54 1015.5
20260507013533 38 351 4.3 8.7 0.00 0.00 0.00 54 1015.4
20260507013038 38 359 5.2 8.7 0.00 0.00 0.00 54 1015.3
20260507012533 38 354 4.3 8.7 0.00 0.00 0.00 54 1015.4
20260507012033 38 314 4.3 8.7 0.00 0.00 0.00 54 1015.2
20260507011545 38 357 4.3 8.7 0.00 0.00 0.00 54 1015.3
20260507011033 38 345 3.5 7.8 0.00 0.00 0.00 54 1015.2
20260507010534 38 345 5.2 7.8 0.00 0.00 0.00 54 1015.3
20260507010044 38 358 5.2 8.7 0.00 0.00 0.00 54 1015.2
20260507005536 38 343 5.2 9.6 0.00 0.00 0.00 54 1015.2
20260507005034 38 343 5.2 9.6 0.00 0.00 0.00 54 1015.2
20260507004540 38 334 6.1 10.4 0.00 0.00 0.00 54 1015.1
20260507004035 38 335 7.0 10.4 0.00 0.00 0.00 54 1015.1
20260507003536 38 359 6.1 11.3 0.00 0.00 0.00 54 1015.1
20260507003043 39 321 6.1 11.3 0.00 0.00 0.00 53 1015.0
20260507002534 39 6 5.2 10.4 0.00 0.00 0.00 53 1014.9
20260507002034 39 335 5.2 10.4 0.00 0.00 0.00 52 1015.0
20260507001541 39 341 6.1 9.6 0.00 0.00 0.00 52 1014.9
20260507001033 39 333 4.3 9.6 0.00 0.00 0.00 52 1015.0
20260507000536 39 347 3.5 9.6 0.00 0.00 0.00 52 1015.1
20260507000042 39 333 5.2 9.6 0.00 0.00 0.00 51 1014.8
20260506235534 40 347 5.2 9.6 0.00 0.00 0.00 51 1014.8
20260506235033 39 27 5.2 8.7 0.00 0.00 0.00 51 1014.8
20260506234538 39 323 4.3 7.8 0.00 0.00 0.00 52 1014.7
20260506234034 39 15 3.5 7.8 0.00 0.00 0.00 53 1014.8
20260506233534 39 27 0.0 6.1 0.00 0.00 0.00 52 1014.7
20260506233055 39 336 2.6 7.0 0.00 0.00 0.00 51 1014.7
20260506232533 40 349 3.5 9.6 0.00 0.00 0.00 51 1014.6
20260506232033 40 339 3.5 9.6 0.00 0.00 0.00 50 1014.5
20260506231544 40 352 5.2 9.6 0.00 0.00 0.00 50 1014.5
20260506231034 40 328 5.2 10.4 0.00 0.00 0.00 50 1014.5
20260506230533 40 323 6.1 10.4 0.00 0.00 0.00 50 1014.3
20260506230043 40 351 6.1 10.4 0.00 0.00 0.00 49 1014.3
20260506225536 40 326 6.1 9.6 0.00 0.00 0.00 49 1014.2
20260506225034 41 334 6.1 11.3 0.00 0.00 0.00 49 1014.3
20260506224550 41 339 7.8 11.3 0.00 0.00 0.00 49 1014.2
20260506224034 41 330 5.2 10.4 0.00 0.00 0.00 48 1014.2
20260506223533 41 340 4.3 8.7 0.00 0.00 0.00 49 1014.3
20260506223038 41 336 4.3 8.7 0.00 0.00 0.00 48 1014.2
20260506222534 41 11 4.3 7.8 0.00 0.00 0.00 48 1014.2
20260506222034 41 333 3.5 9.6 0.00 0.00 0.00 48 1014.1
20260506221546 41 353 1.7 9.6 0.00 0.00 0.00 47 1014.1
20260506221033 42 354 5.2 9.6 0.00 0.00 0.00 46 1014.0
20260506220534 42 327 5.2 10.4 0.00 0.00 0.00 46 1014.1
20260506220045 42 22 5.2 10.4 0.00 0.00 0.00 46 1014.0
20260506215537 42 339 5.2 10.4 0.00 0.00 0.00 46 1013.9
20260506215035 42 335 5.2 9.6 0.00 0.00 0.00 46 1013.9
20260506214544 42 319 5.2 9.6 0.00 0.00 0.00 46 1013.9
20260506214034 42 328 5.2 7.8 0.00 0.00 0.00 45 1013.9
20260506213534 42 36 3.5 7.0 0.00 0.00 0.00 45 1013.9
20260506213048 41 344 2.6 7.0 0.00 0.00 0.00 46 1013.8
20260506212534 42 345 1.7 5.2 0.00 0.00 0.00 45 1013.7
20260506212037 42 356 1.7 7.8 0.00 0.00 0.00 44 1013.7
20260506211539 42 42 2.6 7.8 0.00 0.00 0.00 44 1013.7
20260506211034 42 13 5.2 7.8 0.00 0.00 0.00 43 1013.6
20260506210534 43 29 2.6 7.8 0.00 0.00 0.00 42 1013.5
20260506210038 43 18 4.3 8.7 0.00 0.00 0.00 42 1013.6
20260506205537 43 331 4.3 9.6 0.00 0.00 0.00 41 1013.5
20260506205037 43 329 5.2 10.4 0.00 0.00 0.00 41 1013.6
20260506204550 43 356 4.3 10.4 0.00 0.00 0.00 42 1013.6
20260506204033 42 19 1.7 7.0 0.00 0.00 0.00 43 1013.5
20260506203534 43 0 0.9 6.1 0.00 0.00 0.00 44 1013.5
20260506203045 43 8 1.7 7.0 0.00 0.00 0.00 42 1013.5
20260506202535 43 344 2.6 7.0 0.00 0.00 0.00 41 1013.5
20260506202033 44 354 4.3 7.0 0.00 0.00 0.00 41 1013.4
20260506201545 44 360 2.6 5.2 0.00 0.00 0.00 42 1013.3
20260506201034 44 332 1.7 5.2 0.00 0.00 0.00 44 1013.4
20260506200533 44 53 2.6 7.0 0.00 0.00 0.00 42 1013.5
20260506200040 44 329 2.6 7.0 0.00 0.00 0.00 42 1013.4
20260506195533 44 16 2.6 6.1 0.00 0.00 0.00 43 1013.3
20260506195037 44 347 0.9 3.5 0.00 0.00 0.00 46 1013.2
20260506194541 44 60 0.9 3.5 0.00 0.00 0.00 46 1013.2
20260506194033 44 4 0.0 2.6 0.00 0.00 0.00 48 1013.2
20260506193534 45 0 0.0 2.6 0.00 0.00 0.00 49 1013.1
20260506193055 45 298 0.9 2.6 0.00 0.00 0.00 48 1013.1
20260506192534 45 0 0.0 0.0 0.00 0.00 0.00 48 1013.1
20260506192036 46 0 0.0 1.7 0.00 0.00 0.00 48 1013.0
20260506191548 46 0 0.0 1.7 0.00 0.00 0.00 47 1013.0
20260506191034 46 304 0.0 0.9 0.00 0.00 0.00 46 1012.8
20260506190534 47 302 0.0 0.9 0.00 0.00 0.00 46 1012.9
20260506190045 48 0 0.0 1.7 0.00 0.00 0.00 46 1012.9
20260506185533 48 0 0.0 2.6 0.00 0.00 0.00 45 1012.8
20260506185034 48 182 0.9 3.5 0.00 0.00 0.00 43 1012.7
20260506184543 48 217 0.9 3.5 0.00 0.00 0.00 44 1012.7
20260506184034 48 217 2.6 3.5 0.00 0.00 0.00 43 1012.7
20260506183534 48 212 1.7 4.3 0.00 0.00 0.00 42 1012.7
20260506183039 49 226 2.6 4.3 0.00 0.00 0.00 42 1012.7
20260506182533 49 231 2.6 4.3 0.00 0.00 0.00 42 1012.6
20260506182033 49 240 2.6 5.2 0.00 0.00 0.00 39 1012.5
20260506181545 49 183 3.5 5.2 0.00 0.00 0.00 37 1012.6
20260506181036 50 207 3.5 7.8 0.00 0.00 0.00 38 1012.6
20260506180536 50 237 4.3 7.8 0.00 0.00 0.00 37 1012.6
20260506180059 50 218 5.2 7.8 0.00 0.00 0.00 37 1012.7
20260506175533 50 210 2.6 7.0 0.00 0.00 0.00 38 1012.5
20260506175033 50 165 2.6 7.8 0.00 0.00 0.00 37 1012.4
20260506174545 50 222 1.7 7.8 0.00 0.00 0.00 37 1012.3
20260506174033 50 233 5.2 7.8 0.00 0.00 0.00 36 1012.4
20260506173533 51 159 2.6 7.8 0.00 0.00 0.00 38 1012.4
20260506173044 51 170 2.6 7.8 0.00 0.00 0.00 36 1012.4
20260506172533 51 233 4.3 7.8 0.00 0.00 0.00 36 1012.3
20260506172033 51 165 4.3 9.6 0.00 0.00 0.00 36 1012.2
20260506171549 51 172 6.1 9.6 0.00 0.00 0.00 37 1012.3
20260506171034 51 196 5.2 8.7 0.00 0.00 0.00 38 1012.3
20260506170532 51 95 4.3 7.8 0.00 0.00 0.00 38 1012.2
20260506170055 51 185 4.3 7.0 0.00 0.00 0.00 38 1012.3
20260506165533 51 219 2.6 6.1 0.00 0.00 0.00 38 1012.4
20260506165033 51 212 3.5 8.7 0.00 0.00 0.00 38 1012.6
20260506164547 50 161 2.6 8.7 0.00 0.00 0.00 39 1012.4
20260506164033 51 129 3.5 8.7 0.00 0.00 0.00 37 1012.6
20260506163537 51 259 2.6 11.3 0.00 0.00 0.00 38 1012.4
20260506163057 51 215 5.2 11.3 0.00 0.00 0.00 38 1012.4
20260506162535 51 188 5.2 10.4 0.00 0.00 0.00 36 1012.5
20260506162037 52 198 6.1 9.6 0.00 0.00 0.00 38 1012.3
20260506161546 51 229 4.3 7.0 0.00 0.00 0.00 38 1012.3
20260506161035 51 174 3.5 7.8 0.00 0.00 0.00 39 1012.3
20260506160533 51 164 2.6 7.8 0.00 0.00 0.00 38 1012.3
20260506160047 51 199 4.3 8.7 0.00 0.00 0.00 39 1012.2
20260506155533 50 105 2.6 8.7 0.00 0.00 0.00 40 1012.2
20260506155033 50 216 2.6 7.8 0.00 0.00 0.00 41 1012.2
20260506154604 50 198 0.9 7.0 0.00 0.00 0.00 39 1012.2
20260506154033 50 203 3.5 7.0 0.00 0.00 0.00 40 1012.2
20260506153533 50 199 4.3 7.0 0.00 0.00 0.00 41 1012.2
20260506153049 51 185 1.7 6.1 0.00 0.00 0.00 38 1012.3
20260506152533 51 120 1.7 4.3 0.00 0.00 0.00 40 1012.4
20260506152034 50 115 1.7 5.2 0.00 0.00 0.00 38 1012.4
20260506151539 51 146 2.6 7.8 0.00 0.00 0.00 40 1012.4
20260506151033 50 131 1.7 10.4 0.00 0.00 0.00 41 1012.3
20260506150535 50 113 5.2 10.4 0.00 0.00 0.00 40 1012.4
20260506150047 50 86 5.2 10.4 0.00 0.00 0.00 40 1012.5
20260506145534 51 129 3.5 10.4 0.00 0.00 0.00 41 1012.5
20260506145033 50 136 2.6 10.4 0.00 0.00 0.00 40 1012.3
20260506144546 50 100 5.2 11.3 0.00 0.00 0.00 40 1012.4
20260506144033 50 67 4.3 11.3 0.00 0.00 0.00 41 1012.4
20260506143537 50 124 2.6 9.6 0.00 0.00 0.00 41 1012.5
20260506143059 50 145 5.2 9.6 0.00 0.00 0.00 40 1012.5
20260506142536 51 184 4.3 9.6 0.00 0.00 0.00 42 1012.5
20260506142034 50 96 3.5 8.7 0.00 0.00 0.00 41 1012.5
20260506141543 50 103 2.6 9.6 0.00 0.00 0.00 41 1012.5
20260506141034 51 97 3.5 9.6 0.00 0.00 0.00 41 1012.4
20260506140535 51 111 4.3 9.6 0.00 0.00 0.00 40 1012.6
20260506140049 51 104 4.3 8.7 0.00 0.00 0.00 39 1012.4
20260506135533 52 77 4.3 8.7 0.00 0.00 0.00 42 1012.5
20260506135033 52 147 2.6 7.0 0.00 0.00 0.00 41 1012.5
20260506134545 51 110 2.6 7.0 0.00 0.00 0.00 39 1012.6
20260506134034 50 48 1.7 10.4 0.00 0.00 0.00 38 1012.7
20260506133534 51 110 2.6 10.4 0.00 0.00 0.00 37 1012.5
20260506133040 52 83 5.2 10.4 0.00 0.00 0.00 35 1012.3
20260506132533 53 114 1.7 10.4 0.00 0.00 0.00 41 1012.4
20260506132033 51 92 2.6 10.4 0.00 0.00 0.00 37 1012.4
20260506131546 53 129 4.3 7.8 0.00 0.00 0.00 33 1012.5
20260506131033 53 124 3.5 7.8 0.00 0.00 0.00 36 1012.5
20260506130533 52 99 3.5 7.8 0.00 0.00 0.00 34 1012.5
20260506130044 53 107 2.6 5.2 0.00 0.00 0.00 31 1012.6
20260506125537 53 180 2.6 5.2 0.00 0.00 0.00 32 1012.5
20260506125037 52 201 1.7 6.1 0.00 0.00 0.00 32 1012.6
20260506124541 52 153 3.5 6.1 0.00 0.00 0.00 30 1012.7
20260506124033 52 330 1.7 6.1 0.00 0.00 0.00 33 1012.6
20260506123533 52 219 1.7 6.1 0.00 0.00 0.00 31 1012.7
20260506123040 53 65 0.9 7.0 0.00 0.00 0.00 35 1012.7
20260506122532 53 148 1.7 7.0 0.00 0.00 0.00 32 1012.8
20260506122032 53 116 3.5 7.0 0.00 0.00 0.00 34 1012.8
20260506121543 53 172 1.7 5.2 0.00 0.00 0.00 33 1012.9
20260506121033 52 60 1.7 5.2 0.00 0.00 0.00 31 1012.9
20260506120534 52 207 2.6 5.2 0.00 0.00 0.00 33 1012.8
20260506120038 52 231 1.7 4.3 0.00 0.00 0.00 32 1012.8
20260506115535 51 289 2.6 6.1 0.00 0.00 0.00 33 1012.9
20260506115032 52 328 3.5 6.1 0.00 0.00 0.00 33 1013.0
20260506114547 52 237 2.6 9.6 0.00 0.00 0.00 30 1013.0
20260506114033 52 206 3.5 9.6 0.00 0.00 0.00 33 1012.9
20260506113535 51 243 7.0 9.6 0.00 0.00 0.00 32 1013.0
20260506113039 52 234 2.6 7.8 0.00 0.00 0.00 32 1013.0
20260506112533 53 193 4.3 10.4 0.00 0.00 0.00 33 1013.0
20260506112032 51 124 5.2 10.4 0.00 0.00 0.00 33 1013.1
20260506111541 51 209 2.6 7.0 0.00 0.00 0.00 31 1013.1
20260506111034 51 216 2.6 5.2 0.00 0.00 0.00 31 1013.1
20260506110534 51 42 2.6 7.8 0.00 0.00 0.00 33 1013.1
20260506110038 51 153 3.5 10.4 0.00 0.00 0.00 35 1013.2
20260506105531 50 92 2.6 10.4 0.00 0.00 0.00 34 1013.2
20260506105033 51 198 6.1 10.4 0.00 0.00 0.00 32 1013.1
20260506104545 51 231 2.6 6.1 0.00 0.00 0.00 34 1013.2
20260506104033 50 345 0.9 6.1 0.00 0.00 0.00 34 1013.3
20260506103533 50 345 1.7 6.1 0.00 0.00 0.00 35 1013.3
20260506103044 49 349 0.9 7.0 0.00 0.00 0.00 33 1013.3
20260506102533 49 330 1.7 7.0 0.00 0.00 0.00 35 1013.3
20260506102034 49 220 1.7 4.3 0.00 0.00 0.00 35 1013.3
20260506101543 49 349 1.7 4.3 0.00 0.00 0.00 34 1013.4
20260506101033 49 128 1.7 4.3 0.00 0.00 0.00 34 1013.4
20260506100533 49 278 2.6 9.6 0.00 0.00 0.00 36 1013.5
20260506100047 49 336 0.9 9.6 0.00 0.00 0.00 39 1013.5
20260506095533 50 325 5.2 9.6 0.00 0.00 0.00 35 1013.5
20260506095034 49 287 0.9 6.1 0.00 0.00 0.00 35 1013.6
20260506094549 48 321 0.9 6.1 0.00 0.00 0.00 36 1013.5
20260506094034 49 98 2.6 6.1 0.00 0.00 0.00 35 1013.6
20260506093536 49 107 2.6 5.2 0.00 0.00 0.00 37 1013.6
20260506093038 48 217 0.9 7.0 0.00 0.00 0.00 37 1013.5
20260506092533 47 240 1.7 7.0 0.00 0.00 0.00 38 1013.6
20260506092033 47 236 1.7 7.0 0.00 0.00 0.00 37 1013.7
20260506091546 47 345 3.5 7.0 0.00 0.00 0.00 35 1013.6
20260506091035 46 0 0.9 6.1 0.00 0.00 0.00 37 1013.6
20260506090533 47 283 3.5 6.1 0.00 0.00 0.00 39 1013.7
20260506090042 47 338 0.9 5.2 0.00 0.00 0.00 38 1013.7
20260506085533 47 87 1.7 6.1 0.00 0.00 0.00 39 1013.7
20260506085035 47 301 1.7 6.1 0.00 0.00 0.00 39 1013.7
20260506084546 46 39 3.5 6.1 0.00 0.00 0.00 41 1013.7
20260506084033 46 98 3.5 6.1 0.00 0.00 0.00 40 1013.8
20260506083533 46 120 0.9 6.1 0.00 0.00 0.00 41 1013.7
20260506083042 45 156 3.5 6.1 0.00 0.00 0.00 40 1013.7
20260506082532 45 153 1.7 5.2 0.00 0.00 0.00 42 1013.9
20260506082033 45 256 0.9 6.1 0.00 0.00 0.00 40 1013.9
20260506081545 45 309 1.7 6.1 0.00 0.00 0.00 41 1014.0
20260506081034 45 317 3.5 6.1 0.00 0.00 0.00 43 1014.0
20260506080533 45 293 1.7 7.0 0.00 0.00 0.00 42 1014.0